Flag for Brazil Weather past 2 weeks in Maceió, Alagoas, Brazil

Now
63 °F

Passing clouds.


Feels Like: 63 °F
Forecast: 70 / 80 °F
Wind: 2 mph from Northwest

Location: Maceio Aeroporto

Current Time: Aug 1, 2014 at 5:25:15 AM

Latest Report: Aug 1, 2014 at 5:00 AM


Visibility: N/A

Pressure: 30.04 "Hg

Humidity: 100%

Dew point: 63 °F

Location of MaceióLocation

Historic Weather in Maceió — Graph

°F

Maceió temperature yesterday

Maximum temperature yesterday: 79 °F (at 5:00 PM)
Minimum temperature yesterday: 59 °F (at 3:00 AM)
Average temperature yesterday: 68 °F

Past Weeks' High & Low Weather Summary

 TemperatureHumidityPressure
High79 °F (Jul 31, 5:00 PM)100% (Jul 17, 4:00 AM)30.15 "Hg (Jul 17, 4:00 AM)
Low36 °F (Jul 29, 9:00 AM)48% (Jul 31, 5:00 PM)29.98 "Hg (Jul 25, 4:00 PM)
Average69 °F86%30.07 "Hg
* Reported Jul 17 4:00 AM — Aug 1 4:00 AM, Maceió, Weather by CustomWeather, © 2014

Note: Actual official high and low records may vary slightly from our data, if they occured in-between our weather recording intervals... More about our weather records

Advertising

Maceió weather history for previous 24 hours

 ConditionsComfort  
Time TempWeatherWind HumidityBarometerVisibility
4:00 AM
Aug 1
63 °FPassing clouds.3 mph100%30.04 "HgN/A
3:00 AM63 °FPassing clouds.3 mph94%30.04 "HgN/A
2:00 AM63 °FPassing clouds.3 mph94%30.04 "HgN/A
1:00 AM63 °FPassing clouds.3 mph100%30.07 "HgN/A
12:00 AM63 °FPassing clouds.2 mph100%30.07 "HgN/A
11:00 PM
Jul 31
63 °FPassing clouds.3 mph100%30.09 "HgN/A
9:00 PM68 °FPassing clouds.2 mph83%30.07 "HgN/A
8:00 PM66 °FPassing clouds.3 mph88%30.07 "HgN/A
7:00 PM72 °FClear.7 mph88%30.04 "Hg10 mi
6:00 PM72 °FClear.7 mph78%30.04 "Hg10 mi
5:00 PM79 °FSunny.9 mph48%30.04 "Hg10 mi
4:00 PM73 °FScattered clouds.10 mph69%30.01 "HgN/A
3:00 PM75 °FPassing clouds.12 mph65%30.01 "HgN/A
2:00 PM75 °FPassing clouds.10 mph61%30.01 "HgN/A
12:00 PM75 °FScattered clouds.13 mph61%30.07 "HgN/A
11:00 AM75 °FScattered clouds.13 mph61%30.07 "HgN/A
10:00 AM75 °FScattered clouds.12 mph57%30.07 "HgN/A
9:00 AM72 °FScattered clouds.3 mph78%30.07 "HgN/A
8:00 AM66 °FPassing clouds.3 mph88%30.07 "HgN/A
7:00 AM70 °FPassing clouds.3 mph100%30.04 "HgN/A
6:00 AM63 °FSunny.3 mph100%30.04 "Hg10 mi
5:00 AM59 °FPassing clouds.3 mph100%30.04 "HgN/A
Weather by CustomWeather, © 2014

See weather overviewHow to use our weather pages